View from above orbital plane
|
View from above satellite
|
Ground track
|
The orbit data is extracted from the following two-line orbital elements,
1 29092U 06015A 21059.55874200 .00000060 00000-0 13857-4 0 9996
2 29092 97.9202 87.9673 0001459 91.2738 268.8643 14.83132812802697
Epoch (UTC): | 28 February 2021 13:24:35 |
Eccentricity: | 0.0001459 |
inclination: | 97.9202° |
perigee height: | 618 km |
apogee height: | 620 km |
right ascension of ascending node: | 87.9673° |
argument of perigee: | 91.2738° |
revolutions per day: | 14.83132812 |
mean anomaly at epoch: | 268.8643° |
orbit number at epoch: | 80269 |
The dashed part of the orbit path shows where the satellite is in the earth's shadow,
|
|